Location: Clatteringshaws Loch
(55.0508°N, 4.2860°W)
Time: 00:47:57
(UTC+00:00)

SR - Visible Passes

Search period start: 17 January 2017 00:00
Search period end: 27 January 2017 00:00
Orbit: 577 x 881 km, 66.7° (Epoch: 16 January)

Date Brightness Start Highest point End Pass type
(mag) Time Alt. Az. Time Alt. Az. Time Alt. Az.
17 Jan ? 05:29:55 10° S 05:34:05 32° ESE 05:38:37 10° NE visible
17 Jan ? 07:11:09 10° WSW 07:15:55 61° NW 07:21:11 10° NE visible
18 Jan ? 04:42:00 11° SSE 04:45:07 19° ESE 04:48:36 10° ENE visible
18 Jan ? 06:21:40 10° SW 06:26:26 87° SE 06:31:43 10° NE visible
19 Jan ? 03:55:46 10° ESE 03:56:18 10° E 03:56:52 10° E visible
19 Jan ? 05:34:25 24° S 05:37:08 53° ESE 05:42:12 10° NE visible
19 Jan ? 07:14:43 10° WSW 07:19:24 44° NNW 07:24:33 10° NE visible
20 Jan ? 04:47:03 29° SE 04:48:00 31° ESE 04:52:30 10° NE visible
20 Jan ? 06:26:31 21° WSW 06:29:47 63° NW 06:35:05 10° NE visible
21 Jan ? 03:59:31 18° E 03:59:31 18° E 04:02:27 10° ENE visible
21 Jan ? 05:38:58 49° SW 05:40:19 85° SE 05:45:38 10° NE visible
21 Jan ? 07:18:29 10° W 07:23:01 34° NNW 07:27:57 10° NE visible
22 Jan ? 04:51:18 51° ESE 04:51:18 51° ESE 04:56:06 10° NE visible
22 Jan ? 06:30:45 25° W 06:33:16 45° NNW 06:38:28 10° NE visible
23 Jan ? 04:03:31 25° E 04:03:31 25° E 04:06:23 10° NE visible
23 Jan ? 05:42:58 58° W 05:43:40 65° NW 05:49:00 10° NE visible
23 Jan ? 07:22:24 10° WNW 07:26:43 28° NNW 07:31:27 10° NE visible
24 Jan ? 03:15:41 12° ENE 03:15:41 12° ENE 03:16:18 10° ENE visible
24 Jan ? 04:55:06 61° NE 04:55:06 61° NE 04:59:32 10° NE visible
24 Jan ? 06:34:33 23° WNW 06:36:53 34° NNW 06:41:52 10° NE visible
25 Jan ? 04:07:11 29° ENE 04:07:11 29° ENE 04:10:00 10° NE visible
25 Jan ? 05:46:37 44° NW 05:47:08 46° NW 05:52:22 10° NE visible
25 Jan ? 07:26:12 10° WNW 07:30:30 25° N 07:35:05 10° NE visible
26 Jan ? 03:19:14 15° ENE 03:19:14 15° ENE 03:20:17 10° NE visible
26 Jan ? 04:58:39 52° NNE 04:58:39 52° NNE 05:02:55 10° NE visible
26 Jan ? 06:38:05 20° WNW 06:40:35 29° NNW 06:45:21 10° NE visible
